TimeEST,TemperatureF,Dew PointF,Humidity,Sea Level PressureIn,VisibilityMPH,Wind Direction,Wind SpeedMPH,Gust SpeedMPH,PrecipitationIn,Events,Conditions,WindDirDegrees,DateUTC
12:14 AM,18.5,14.0,83,30.30,10.0,ENE,9.2,-,N/A,,Overcast,60,2013-02-22 05:14:00
12:34 AM,19.9,16.5,87,30.29,10.0,East,5.8,-,N/A,,Overcast,90,2013-02-22 05:34:00
12:53 AM,21.7,18.5,87,30.29,10.0,ESE,9.2,19.6,N/A,,Overcast,110,2013-02-22 05:53:00
1:14 AM,23.7,19.4,84,30.27,10.0,East,9.2,19.6,N/A,,Overcast,100,2013-02-22 06:14:00
1:34 AM,22.3,18.5,85,30.26,10.0,ENE,15.0,21.9,N/A,,Overcast,70,2013-02-22 06:34:00
1:53 AM,21.0,17.6,87,30.27,10.0,East,11.5,23.0,N/A,,Overcast,80,2013-02-22 06:53:00
2:14 AM,20.3,16.7,86,30.27,10.0,East,13.8,23.0,N/A,,Overcast,80,2013-02-22 07:14:00
2:34 AM,20.3,16.9,87,30.26,7.0,East,16.1,26.5,N/A,,Overcast,80,2013-02-22 07:34:00
2:53 AM,20.1,16.9,87,30.25,5.0,East,12.7,27.6,N/A,,Overcast,80,2013-02-22 07:53:00
3:14 AM,20.1,17.1,88,30.26,5.0,East,11.5,27.6,N/A,,Overcast,90,2013-02-22 08:14:00
3:33 AM,20.3,17.6,89,30.24,5.0,East,16.1,26.5,N/A,,Overcast,90,2013-02-22 08:33:00
3:53 AM,20.8,18.5,91,30.23,5.0,East,15.0,23.0,N/A,,Overcast,90,2013-02-22 08:53:00
4:14 AM,21.0,18.5,90,30.23,5.0,East,15.0,25.3,N/A,,Overcast,90,2013-02-22 09:14:00
4:34 AM,20.3,18.1,91,30.22,4.0,East,17.3,28.8,N/A,,Overcast,80,2013-02-22 09:34:00
4:53 AM,19.9,17.6,91,30.21,4.0,East,12.7,23.0,N/A,,Overcast,80,2013-02-22 09:53:00
5:14 AM,19.9,17.8,91,30.20,4.0,East,17.3,28.8,N/A,,Overcast,80,2013-02-22 10:14:00
5:33 AM,19.0,16.7,91,30.20,4.0,East,18.4,26.5,N/A,,Overcast,80,2013-02-22 10:33:00
5:53 AM,18.1,15.8,91,30.19,5.0,ENE,17.3,26.5,N/A,,Overcast,70,2013-02-22 10:53:00
6:14 AM,17.6,15.4,91,30.19,5.0,East,15.0,26.5,N/A,,Overcast,80,2013-02-22 11:14:00
6:33 AM,17.2,14.9,91,30.18,5.0,East,17.3,28.8,N/A,,Overcast,80,2013-02-22 11:33:00
7:14 AM,16.5,14.2,90,30.17,5.0,ENE,15.0,28.8,N/A,,Overcast,70,2013-02-22 12:14:00
7:33 AM,16.5,14.2,90,30.17,4.0,ENE,17.3,27.6,N/A,,Overcast,70,2013-02-22 12:33:00
7:53 AM,16.2,14.0,91,30.17,3.0,East,17.3,26.5,N/A,,Overcast,80,2013-02-22 12:53:00
8:14 AM,16.2,13.8,90,30.16,2.5,ENE,17.3,26.5,N/A,,Overcast,70,2013-02-22 13:14:00
8:33 AM,15.8,13.5,90,30.15,2.0,ENE,15.0,28.8,N/A,,Overcast,70,2013-02-22 13:33:00
8:53 AM,16.0,13.6,90,30.13,2.0,ENE,20.7,28.8,N/A,,Overcast,70,2013-02-22 13:53:00
9:14 AM,15.8,13.5,90,30.11,1.5,ENE,16.1,29.9,N/A,,Overcast,70,2013-02-22 14:14:00
9:33 AM,15.8,13.5,90,30.10,1.2,ENE,19.6,27.6,N/A,,Overcast,70,2013-02-22 14:33:00
9:54 AM,15.8,13.5,90,30.09,1.2,ENE,18.4,28.8,N/A,,Overcast,70,2013-02-22 14:54:00
10:14 AM,16.5,14.0,90,30.08,1.2,ENE,19.6,28.8,N/A,,Overcast,70,2013-02-22 15:14:00
10:33 AM,16.7,14.5,91,30.07,1.0,ENE,20.7,32.2,N/A,,Overcast,70,2013-02-22 15:33:00
10:54 AM,17.1,14.5,90,30.06,1.0,ENE,19.6,28.8,N/A,,Overcast,70,2013-02-22 15:54:00
11:14 AM,16.7,14.4,91,30.05,1.0,ENE,20.7,28.8,N/A,,Overcast,70,2013-02-22 16:14:00
11:33 AM,16.7,14.0,89,30.05,0.8,ENE,16.1,26.5,N/A,Snow,Light Snow,70,2013-02-22 16:33:00
11:54 AM,16.7,14.0,89,30.03,0.8,ENE,19.6,28.8,N/A,Snow,Light Snow,70,2013-02-22 16:54:00
12:14 PM,16.7,14.0,89,30.03,0.5,ENE,18.4,26.5,N/A,Snow,Snow,70,2013-02-22 17:14:00
12:33 PM,17.1,14.4,89,30.02,1.0,ENE,20.7,26.5,N/A,Snow,Light Snow,70,2013-02-22 17:33:00
12:54 PM,17.4,14.5,88,30.00,1.0,ENE,19.6,32.2,N/A,Snow,Light Snow,70,2013-02-22 17:54:00
1:13 PM,18.3,15.4,89,30.00,0.5,ENE,18.4,27.6,N/A,Snow,Light Snow,70,2013-02-22 18:13:00
1:33 PM,19.0,16.2,89,29.98,1.0,ENE,19.6,27.6,N/A,Snow,Light Snow,70,2013-02-22 18:33:00
2:13 PM,19.9,17.2,89,29.95,1.0,ENE,16.1,27.6,N/A,Snow,Light Snow,70,2013-02-22 19:13:00
2:33 PM,20.7,18.0,89,29.94,1.5,East,17.3,28.8,N/A,Snow,Light Snow,80,2013-02-22 19:33:00
2:54 PM,20.8,18.3,90,29.94,1.8,East,20.7,29.9,N/A,Snow,Light Snow,80,2013-02-22 19:54:00
3:13 PM,21.2,18.9,91,29.93,1.5,ENE,16.1,26.5,N/A,Snow,Light Snow,70,2013-02-22 20:13:00
3:33 PM,21.7,19.2,90,29.92,2.5,ENE,16.1,29.9,N/A,Snow,Light Snow,70,2013-02-22 20:33:00
3:54 PM,22.5,20.1,91,29.91,1.5,East,17.3,27.6,N/A,Snow,Light Snow,80,2013-02-22 20:54:00
4:13 PM,23.0,20.7,91,29.91,1.5,East,17.3,26.5,N/A,Snow,Light Snow,80,2013-02-22 21:13:00
4:34 PM,23.5,21.2,91,29.90,1.2,East,13.8,27.6,N/A,Snow,Light Snow,80,2013-02-22 21:34:00
4:54 PM,24.3,22.1,91,29.88,1.0,East,18.4,26.5,N/A,Snow,Light Snow,80,2013-02-22 21:54:00
5:13 PM,25.3,23.2,91,29.88,1.0,East,15.0,27.6,N/A,Snow,Light Snow,90,2013-02-22 22:13:00
5:34 PM,26.4,24.4,92,29.86,0.8,East,11.5,27.6,N/A,Snow,Light Snow,90,2013-02-22 22:34:00
5:54 PM,27.5,25.9,94,29.86,0.8,East,16.1,28.8,N/A,Snow,Light Snow,100,2013-02-22 22:54:00
6:13 PM,28.6,27.1,94,29.87,1.2,East,13.8,27.6,N/A,Snow,Light Snow,100,2013-02-22 23:13:00
6:34 PM,29.1,27.5,94,29.87,0.8,ESE,15.0,28.8,N/A,Snow,Snow,110,2013-02-22 23:34:00
6:53 PM,29.3,27.5,93,29.87,2.5,ESE,12.7,21.9,N/A,Snow,Light Snow,120,2013-02-22 23:53:00
7:13 PM,29.7,27.3,91,29.86,4.0,ESE,12.7,19.6,N/A,,Overcast,110,2013-02-23 00:13:00
7:34 PM,29.7,27.3,91,29.85,4.0,ESE,15.0,24.2,N/A,,Overcast,120,2013-02-23 00:34:00
7:53 PM,29.7,27.3,91,29.85,4.0,SE,10.4,20.7,N/A,,Overcast,130,2013-02-23 00:53:00
8:14 PM,29.8,27.5,91,29.85,3.0,ESE,9.2,18.4,N/A,,Overcast,120,2013-02-23 01:14:00
8:33 PM,29.3,27.3,92,29.84,3.0,SE,6.9,17.3,N/A,,Overcast,130,2013-02-23 01:33:00
8:53 PM,29.3,27.3,92,29.84,4.0,SE,6.9,-,N/A,Snow,Light Snow,130,2013-02-23 01:53:00
9:14 PM,29.3,27.3,92,29.83,4.0,ESE,8.1,-,0.01,Snow,Light Snow,120,2013-02-23 02:14:00
9:33 PM,29.1,27.0,92,29.82,3.0,ESE,5.8,-,0.01,Snow,Light Snow,120,2013-02-23 02:33:00
9:53 PM,29.1,27.1,92,29.82,4.0,SE,5.8,-,0.01,Snow,Light Snow,140,2013-02-23 02:53:00
10:14 PM,29.1,27.1,92,29.81,5.0,SE,5.8,-,N/A,Snow,Light Snow,140,2013-02-23 03:14:00
10:33 PM,28.9,27.0,92,29.81,5.0,SSE,4.6,-,N/A,Snow,Light Snow,150,2013-02-23 03:33:00
10:53 PM,28.8,27.0,93,29.81,5.0,SSE,6.9,-,N/A,Snow,Light Snow,160,2013-02-23 03:53:00
11:13 PM,28.4,26.6,93,29.80,5.0,SSE,6.9,-,N/A,Snow,Light Snow,160,2013-02-23 04:13:00
11:33 PM,28.2,26.6,94,29.80,2.5,SSE,5.8,-,N/A,Snow,Light Snow,150,2013-02-23 04:33:00
11:54 PM,28.0,26.2,93,29.79,2.5,SE,5.8,-,N/A,Snow,Light Snow,140,2013-02-23 04:54:00